sat.trackr.live / text

‹ back to catalog

STARLINK-30357

NORAD 57750 · 2023-131U

PAYLOAD ACTIVE UNKNOWN

§ Identity

Operator
Country
US
Launch date
2023-09-01
Launch site
AFETR
Launch vehicle
Mass (kg)
RCS (m²)

Purposes: comms

External: N2YO · Heavens-Above · Gunter

§ Orbital elements

Epoch: 2026-05-24T08:52:55.397568Z

Period
94.27 min
Inclination
43.0047°
Eccentricity
0.0001818
Mean motion
15.27576966 rev/d
Perigee alt
481.8 km
Apogee alt
484.3 km
Semi-major
6,861.2 km
B*
6.7665e-5
RAAN
112.4640°
Arg perigee
285.5908°
Mean anomaly
74.4743°
Rev number
15,139

§ Raw data

STARLINK-303571 57750U 23131U   26144.37008562  .00001600  00000+0  67665-4 0  99922 57750  43.0047 112.4640 0001818 285.5908  74.4743 15.27576966151399

JSON: /api/v1/satellites/57750 · /tle

For live sub-satellite position, see the globe view (requires WebGL).

§ Visibility from observer

Set your observer location to see the next 7 days of passes ≥ 10°. The values pass through the URL so the page stays shareable.

No JS? Fill the form by hand. The geolocation button needs JavaScript.